User: anonymous   Login
Location: Unspecified
(0.0000°N, 0.0000°E)
Time: 18:29:20
(UTC+00:00)
Language:

SO-50 - Orbit

View from above orbital plane
View from above orbital plane
View from above satellite
View from above satellite

Ground track
Ground track

The orbit data is extracted from the following two-line orbital elements,

1 27607U 02058C   18174.85446646 -.00000019  00000-0  18096-4 0  9990
2 27607  64.5560  69.6556 0065985 326.9298  32.7685 14.75459134833940
Epoch (UTC): 23 June 2018 20:30:25
Eccentricity: 0.0065985
inclination: 64.5560°
perigee height: 597 km
apogee height: 690 km
right ascension of ascending node: 69.6556°
argument of perigee: 326.9298°
revolutions per day: 14.75459134
mean anomaly at epoch: 32.7685°
orbit number at epoch: 83394

The dashed part of the orbit path shows where the satellite is in the earth's shadow,  

DLR